User: anonymous   Login
Location: Unspecified
(0.0000°N, 0.0000°E)
Time: 07:09:45
(UTC+00:00)
Language:

USA 157 - Orbit

View from above orbital plane
View from above orbital plane
View from above satellite
View from above satellite

Ground track
Ground track

The orbit data is extracted from the following two-line orbital elements,

1 26715U 01009A   18217.91298783 0.00000000  00000-0  00000-0 0    00
2 26715   8.6884  33.9428 0008878 109.6454 250.4685  1.00270000    06
Epoch (UTC): 05 August 2018 21:54:42
Eccentricity: 0.0008878
inclination: 8.6884°
perigee height: 35749 km
apogee height: 35824 km
right ascension of ascending node: 33.9428°
argument of perigee: 109.6454°
revolutions per day: 1.00270000
mean anomaly at epoch: 250.4685°
orbit number at epoch: 0

The dashed part of the orbit path shows where the satellite is in the earth's shadow,  

DLR